Time,TemperatureF,DewpointF,PressureIn,WindDirection,WindDirectionDegrees,WindSpeedMPH,WindSpeedGustMPH,Humidity,HourlyPrecipIn,Conditions,Clouds,dailyrainin,SoftwareType,DateUTC
2013-10-22 00:04:00,59.5,41.4,29.85,ESE,114,0.0,0.0,51,0.00,,---,0.00,VWS V14.01,2013-10-22 07:04:00,
2013-10-22 00:09:00,59.4,41.3,29.85,SE,138,0.0,0.0,51,0.00,,---,0.00,VWS V14.01,2013-10-22 07:09:00,
2013-10-22 00:14:00,59.3,41.7,29.85,SE,137,0.0,0.0,52,0.00,,---,0.00,VWS V14.01,2013-10-22 07:14:00,
2013-10-22 00:19:00,59.2,41.6,29.85,SE,138,0.0,0.0,52,0.00,,---,0.00,VWS V14.01,2013-10-22 07:19:00,
2013-10-22 00:24:00,58.9,41.3,29.85,SE,139,0.0,0.0,52,0.00,,---,0.00,VWS V14.01,2013-10-22 07:24:00,
2013-10-22 00:29:00,58.8,41.7,29.85,East,94,0.0,0.0,53,0.00,,---,0.00,VWS V14.01,2013-10-22 07:29:00,
2013-10-22 00:34:00,58.7,41.6,29.85,East,84,0.0,0.0,53,0.00,,---,0.00,VWS V14.01,2013-10-22 07:34:00,
2013-10-22 00:39:00,58.5,41.5,29.85,East,90,0.0,0.0,53,0.00,,---,0.00,VWS V14.01,2013-10-22 07:39:00,
2013-10-22 00:44:00,58.4,41.8,29.85,East,88,0.0,0.0,54,0.00,,---,0.00,VWS V14.01,2013-10-22 07:44:00,
2013-10-22 00:49:00,58.2,41.7,29.85,ESE,103,0.0,0.0,54,0.00,,---,0.00,VWS V14.01,2013-10-22 07:49:00,
2013-10-22 00:54:00,58.0,41.5,29.85,East,92,0.0,0.0,54,0.00,,---,0.00,VWS V14.01,2013-10-22 07:54:00,
2013-10-22 00:59:00,57.9,41.4,29.85,NW,306,0.0,0.0,54,0.00,,---,0.00,VWS V14.01,2013-10-22 07:59:00,
2013-10-22 01:04:00,57.7,41.2,29.85,East,94,0.0,0.0,54,0.00,,---,0.00,VWS V14.01,2013-10-22 08:04:00,
2013-10-22 01:09:00,57.6,41.1,29.86,NNE,28,0.0,0.0,54,0.00,,---,0.00,VWS V14.01,2013-10-22 08:09:00,
2013-10-22 01:14:00,57.5,41.0,29.86,ENE,72,0.0,0.0,54,0.00,,---,0.00,VWS V14.01,2013-10-22 08:14:00,
2013-10-22 01:19:00,57.5,41.0,29.86,ENE,78,0.0,0.0,54,0.00,,---,0.00,VWS V14.01,2013-10-22 08:19:00,
2013-10-22 01:24:00,57.4,40.9,29.86,ENE,74,0.0,0.0,54,0.00,,---,0.00,VWS V14.01,2013-10-22 08:24:00,
2013-10-22 01:29:00,57.3,40.8,29.86,ENE,76,0.0,0.0,54,0.00,,---,0.00,VWS V14.01,2013-10-22 08:29:00,
2013-10-22 01:34:00,57.2,40.7,29.86,East,97,0.0,0.0,54,0.00,,---,0.00,VWS V14.01,2013-10-22 08:34:00,
2013-10-22 01:39:00,57.2,40.2,29.86,East,98,0.0,0.0,53,0.00,,---,0.00,VWS V14.01,2013-10-22 08:39:00,
2013-10-22 01:44:00,57.2,40.7,29.86,East,96,0.0,0.0,54,0.00,,---,0.00,VWS V14.01,2013-10-22 08:44:00,
2013-10-22 01:49:00,57.1,40.6,29.86,East,80,0.0,0.0,54,0.00,,---,0.00,VWS V14.01,2013-10-22 08:49:00,
2013-10-22 01:54:00,57.1,40.2,29.86,East,80,0.0,0.0,53,0.00,,---,0.00,VWS V14.01,2013-10-22 08:54:00,
2013-10-22 01:59:00,57.1,40.2,29.86,East,82,0.0,0.0,53,0.00,,---,0.00,VWS V14.01,2013-10-22 08:59:00,
2013-10-22 02:04:00,57.1,40.2,29.86,ESE,102,0.0,0.0,53,0.00,,---,0.00,VWS V14.01,2013-10-22 09:04:00,
2013-10-22 02:09:00,57.1,40.2,29.86,ESE,103,0.0,0.0,53,0.00,,---,0.00,VWS V14.01,2013-10-22 09:09:00,
2013-10-22 02:14:00,57.0,40.1,29.86,East,79,0.0,0.0,53,0.00,,---,0.00,VWS V14.01,2013-10-22 09:14:00,
2013-10-22 02:19:00,56.9,40.0,29.86,East,80,0.0,0.0,53,0.00,,---,0.00,VWS V14.01,2013-10-22 09:19:00,
2013-10-22 02:24:00,56.8,39.9,29.86,East,80,0.0,0.0,53,0.00,,---,0.00,VWS V14.01,2013-10-22 09:24:00,
2013-10-22 02:29:00,56.8,39.9,29.86,East,80,0.0,0.0,53,0.00,,---,0.00,VWS V14.01,2013-10-22 09:29:00,
2013-10-22 02:34:00,56.7,39.8,29.86,East,90,0.0,0.0,53,0.00,,---,0.00,VWS V14.01,2013-10-22 09:34:00,
2013-10-22 02:39:00,56.7,39.8,29.86,East,98,0.0,0.0,53,0.00,,---,0.00,VWS V14.01,2013-10-22 09:39:00,
2013-10-22 02:44:00,56.7,39.3,29.86,ESE,103,0.0,0.0,52,0.00,,---,0.00,VWS V14.01,2013-10-22 09:44:00,
2013-10-22 02:49:00,56.6,39.2,29.86,East,101,0.0,0.0,52,0.00,,---,0.00,VWS V14.01,2013-10-22 09:49:00,
2013-10-22 02:54:00,56.6,39.7,29.86,ESE,102,0.0,0.0,53,0.00,,---,0.00,VWS V14.01,2013-10-22 09:54:00,
2013-10-22 02:59:00,56.5,39.1,29.86,ESE,103,0.0,0.0,52,0.00,,---,0.00,VWS V14.01,2013-10-22 09:59:00,
2013-10-22 03:04:00,56.5,39.1,29.86,ESE,104,0.0,0.0,52,0.00,,---,0.00,VWS V14.01,2013-10-22 10:04:00,
2013-10-22 03:10:00,56.4,39.0,29.86,ESE,103,0.0,0.0,52,0.00,,---,0.00,VWS V14.01,2013-10-22 10:10:00,
2013-10-22 03:15:00,56.4,38.5,29.86,ESE,103,0.0,0.0,51,0.00,,---,0.00,VWS V14.01,2013-10-22 10:15:00,
2013-10-22 03:20:00,56.4,39.0,29.86,ESE,103,0.0,0.0,52,0.00,,---,0.00,VWS V14.01,2013-10-22 10:20:00,
2013-10-22 03:25:00,56.3,38.9,29.86,ESE,103,0.0,0.0,52,0.00,,---,0.00,VWS V14.01,2013-10-22 10:25:00,
2013-10-22 03:30:00,56.2,38.8,29.86,East,80,0.0,0.0,52,0.00,,---,0.00,VWS V14.01,2013-10-22 10:30:00,
2013-10-22 03:35:00,56.2,38.8,29.86,ENE,78,0.0,0.0,52,0.00,,---,0.00,VWS V14.01,2013-10-22 10:35:00,
2013-10-22 03:40:00,56.3,38.4,29.85,ENE,78,0.0,0.0,51,0.00,,---,0.00,VWS V14.01,2013-10-22 10:40:00,
2013-10-22 03:45:00,56.2,38.8,29.85,ENE,78,0.0,0.0,52,0.00,,---,0.00,VWS V14.01,2013-10-22 10:45:00,
2013-10-22 03:50:00,56.0,38.6,29.85,ENE,78,0.0,0.0,52,0.00,,---,0.00,VWS V14.01,2013-10-22 10:50:00,
2013-10-22 03:55:00,55.9,38.5,29.85,East,80,0.0,0.0,52,0.00,,---,0.00,VWS V14.01,2013-10-22 10:55:00,
2013-10-22 04:00:00,55.7,38.4,29.85,East,91,0.0,0.0,52,0.00,,---,0.00,VWS V14.01,2013-10-22 11:00:00,
2013-10-22 04:05:00,55.6,38.8,29.85,East,91,0.0,0.0,53,0.00,,---,0.00,VWS V14.01,2013-10-22 11:05:00,
2013-10-22 04:10:00,55.5,38.2,29.85,NNW,339,1.0,0.0,52,0.00,,---,0.00,VWS V14.01,2013-10-22 11:10:00,
2013-10-22 04:15:00,55.5,38.7,29.85,WNW,296,1.0,0.0,53,0.00,,---,0.00,VWS V14.01,2013-10-22 11:15:00,
2013-10-22 04:20:00,55.4,38.1,29.85,ESE,107,0.0,0.0,52,0.00,,---,0.00,VWS V14.01,2013-10-22 11:20:00,
2013-10-22 04:25:00,55.2,37.9,29.85,East,90,0.0,0.0,52,0.00,,---,0.00,VWS V14.01,2013-10-22 11:25:00,
2013-10-22 04:30:00,55.2,37.9,29.85,East,88,0.0,0.0,52,0.00,,---,0.00,VWS V14.01,2013-10-22 11:30:00,
2013-10-22 04:35:00,55.1,37.8,29.85,ESE,108,1.0,0.0,52,0.00,,---,0.00,VWS V14.01,2013-10-22 11:35:00,
2013-10-22 04:40:00,55.1,37.3,29.85,East,88,1.0,0.0,51,0.00,,---,0.00,VWS V14.01,2013-10-22 11:40:00,
2013-10-22 04:45:00,55.1,37.3,29.85,East,97,4.0,0.0,51,0.00,,---,0.00,VWS V14.01,2013-10-22 11:45:00,
2013-10-22 04:50:00,55.2,36.9,29.85,East,101,0.0,0.0,50,0.00,,---,0.00,VWS V14.01,2013-10-22 11:50:00,
2013-10-22 04:55:00,55.3,37.0,29.85,East,86,1.0,0.0,50,0.00,,---,0.00,VWS V14.01,2013-10-22 11:55:00,
2013-10-22 05:00:00,55.3,36.5,29.85,ESE,109,0.0,0.0,49,0.00,,---,0.00,VWS V14.01,2013-10-22 12:00:00,
2013-10-22 05:05:00,55.5,36.7,29.85,ESE,119,1.0,0.0,49,0.00,,---,0.00,VWS V14.01,2013-10-22 12:05:00,
2013-10-22 05:10:00,55.6,36.8,29.86,East,88,2.0,0.0,49,0.00,,---,0.00,VWS V14.01,2013-10-22 12:10:00,
2013-10-22 05:15:00,55.6,36.8,29.86,East,86,1.0,0.0,49,0.00,,---,0.00,VWS V14.01,2013-10-22 12:15:00,
2013-10-22 05:21:00,55.6,36.2,29.86,East,87,0.0,0.0,48,0.00,,---,0.00,VWS V14.01,2013-10-22 12:21:00,
2013-10-22 05:26:00,55.6,36.2,29.86,East,79,0.0,0.0,48,0.00,,---,0.00,VWS V14.01,2013-10-22 12:26:00,
2013-10-22 05:31:00,55.6,36.8,29.86,ESE,120,0.0,0.0,49,0.00,,---,0.00,VWS V14.01,2013-10-22 12:31:00,
2013-10-22 05:36:00,55.5,36.7,29.86,ESE,104,0.0,0.0,49,0.00,,---,0.00,VWS V14.01,2013-10-22 12:36:00,
2013-10-22 05:41:00,55.4,37.6,29.86,ESE,103,0.0,0.0,51,0.00,,---,0.00,VWS V14.01,2013-10-22 12:41:00,
2013-10-22 05:46:00,55.3,37.5,29.86,ENE,65,0.0,0.0,51,0.00,,---,0.00,VWS V14.01,2013-10-22 12:46:00,
2013-10-22 05:51:00,55.1,38.3,29.86,ENE,70,0.0,0.0,53,0.00,,---,0.00,VWS V14.01,2013-10-22 12:51:00,
2013-10-22 05:56:00,55.0,37.7,29.86,ENE,74,0.0,0.0,52,0.00,,---,0.00,VWS V14.01,2013-10-22 12:56:00,
2013-10-22 06:01:00,54.8,36.5,29.86,East,92,0.0,0.0,50,0.00,,---,0.00,VWS V14.01,2013-10-22 13:01:00,
2013-10-22 06:06:00,54.7,36.9,29.87,NE,52,0.0,0.0,51,0.00,,---,0.00,VWS V14.01,2013-10-22 13:06:00,
2013-10-22 06:11:00,54.6,38.3,29.87,East,81,0.0,0.0,54,0.00,,---,0.00,VWS V14.01,2013-10-22 13:11:00,
2013-10-22 06:16:00,54.5,37.2,29.87,ENE,65,0.0,0.0,52,0.00,,---,0.00,VWS V14.01,2013-10-22 13:16:00,
2013-10-22 06:21:00,54.4,35.1,29.87,ENE,67,0.0,0.0,48,0.00,,---,0.00,VWS V14.01,2013-10-22 13:21:00,
2013-10-22 06:26:00,54.4,35.1,29.87,ENE,65,0.0,0.0,48,0.00,,---,0.00,VWS V14.01,2013-10-22 13:26:00,
2013-10-22 06:31:00,54.4,35.7,29.87,ENE,65,0.0,0.0,49,0.00,,---,0.00,VWS V14.01,2013-10-22 13:31:00,
2013-10-22 06:36:00,54.5,35.2,29.87,NE,48,0.0,0.0,48,0.00,,---,0.00,VWS V14.01,2013-10-22 13:36:00,
2013-10-22 06:41:00,54.4,35.1,29.87,ENE,57,0.0,0.0,48,0.00,,---,0.00,VWS V14.01,2013-10-22 13:41:00,
2013-10-22 06:46:00,54.4,34.6,29.87,NE,55,0.0,0.0,47,0.00,,---,0.00,VWS V14.01,2013-10-22 13:46:00,
2013-10-22 06:51:00,54.4,34.6,29.87,NE,56,0.0,0.0,47,0.00,,---,0.00,VWS V14.01,2013-10-22 13:51:00,
2013-10-22 06:56:00,54.4,34.6,29.87,NW,304,0.0,0.0,47,0.00,,---,0.00,VWS V14.01,2013-10-22 13:56:00,
2013-10-22 07:01:00,54.4,34.6,29.88,NW,316,0.0,0.0,47,0.00,,---,0.00,VWS V14.01,2013-10-22 14:01:00,
2013-10-22 07:06:00,54.2,35.0,29.87,NW,316,0.0,0.0,48,0.00,,---,0.00,VWS V14.01,2013-10-22 14:06:00,
2013-10-22 07:11:00,54.2,34.4,29.87,East,88,0.0,0.0,47,0.00,,---,0.00,VWS V14.01,2013-10-22 14:11:00,
2013-10-22 07:16:00,54.1,34.3,29.88,East,86,0.0,0.0,47,0.00,,---,0.00,VWS V14.01,2013-10-22 14:16:00,
2013-10-22 07:21:00,54.0,34.2,29.88,East,86,0.0,0.0,47,0.00,,---,0.00,VWS V14.01,2013-10-22 14:21:00,
2013-10-22 07:26:00,53.9,34.7,29.87,East,87,0.0,0.0,48,0.00,,---,0.00,VWS V14.01,2013-10-22 14:26:00,
2013-10-22 07:31:00,53.9,34.2,29.88,East,100,0.0,0.0,47,0.00,,---,0.00,VWS V14.01,2013-10-22 14:31:00,
2013-10-22 07:36:00,53.8,34.1,29.88,East,100,0.0,0.0,47,0.00,,---,0.00,VWS V14.01,2013-10-22 14:36:00,
2013-10-22 07:41:00,53.7,33.4,29.88,ESE,107,1.0,0.0,46,0.00,,---,0.00,VWS V14.01,2013-10-22 14:41:00,
2013-10-22 07:46:00,53.7,33.4,29.88,ESE,107,0.0,0.0,46,0.00,,---,0.00,VWS V14.01,2013-10-22 14:46:00,
2013-10-22 07:51:00,53.8,33.5,29.88,ESE,109,0.0,0.0,46,0.00,,---,0.00,VWS V14.01,2013-10-22 14:51:00,
2013-10-22 07:56:00,53.9,33.6,29.88,ESE,108,0.0,0.0,46,0.00,,---,0.00,VWS V14.01,2013-10-22 14:56:00,
2013-10-22 08:01:00,54.0,33.2,29.88,ESE,108,0.0,0.0,45,0.00,,---,0.00,VWS V14.01,2013-10-22 15:01:00,
2013-10-22 08:06:00,54.1,33.2,29.88,ESE,105,0.0,0.0,45,0.00,,---,0.00,VWS V14.01,2013-10-22 15:06:00,
2013-10-22 08:11:00,54.2,33.3,29.88,ESE,107,0.0,0.0,45,0.00,,---,0.00,VWS V14.01,2013-10-22 15:11:00,
2013-10-22 08:16:00,54.4,33.5,29.88,ESE,107,0.0,0.0,45,0.00,,---,0.00,VWS V14.01,2013-10-22 15:16:00,
2013-10-22 08:21:00,54.5,33.6,29.89,ESE,105,0.0,0.0,45,0.00,,---,0.00,VWS V14.01,2013-10-22 15:21:00,
2013-10-22 08:26:00,54.7,34.9,29.89,ESE,106,0.0,0.0,47,0.00,,---,0.00,VWS V14.01,2013-10-22 15:26:00,
2013-10-22 08:32:00,54.7,34.9,29.89,ESE,106,0.0,0.0,47,0.00,,---,0.00,VWS V14.01,2013-10-22 15:32:00,
2013-10-22 08:37:00,54.8,33.9,29.89,ESE,106,0.0,0.0,45,0.00,,---,0.00,VWS V14.01,2013-10-22 15:37:00,
2013-10-22 08:42:00,55.1,33.6,29.89,East,87,0.0,0.0,44,0.00,,---,0.00,VWS V14.01,2013-10-22 15:42:00,
2013-10-22 08:47:00,55.5,34.0,29.89,East,94,0.0,0.0,44,0.00,,---,0.00,VWS V14.01,2013-10-22 15:47:00,
2013-10-22 08:52:00,55.7,34.1,29.89,East,90,0.0,0.0,44,0.00,,---,0.00,VWS V14.01,2013-10-22 15:52:00,
2013-10-22 08:57:00,56.0,33.8,29.89,East,87,2.0,0.0,43,0.00,,---,0.00,VWS V14.01,2013-10-22 15:57:00,
2013-10-22 09:02:00,56.3,33.5,29.89,ENE,71,2.0,0.0,42,0.00,,---,0.00,VWS V14.01,2013-10-22 16:02:00,
2013-10-22 09:07:00,56.7,35.6,29.89,ENE,66,0.0,0.0,45,0.00,,---,0.00,VWS V14.01,2013-10-22 16:07:00,
2013-10-22 09:12:00,57.0,35.3,29.89,ENE,65,0.0,0.0,44,0.00,,---,0.00,VWS V14.01,2013-10-22 16:12:00,
2013-10-22 09:17:00,57.4,35.7,29.89,ENE,59,0.0,0.0,44,0.00,,---,0.00,VWS V14.01,2013-10-22 16:17:00,
2013-10-22 09:22:00,57.9,35.6,29.89,NNE,28,0.0,0.0,43,0.00,,---,0.00,VWS V14.01,2013-10-22 16:22:00,
2013-10-22 09:27:00,58.5,36.1,29.89,ENE,65,0.0,0.0,43,0.00,,---,0.00,VWS V14.01,2013-10-22 16:27:00,
2013-10-22 09:32:00,59.3,34.4,29.89,ENE,74,0.0,0.0,39,0.00,,---,0.00,VWS V14.01,2013-10-22 16:32:00,
2013-10-22 09:37:00,60.0,36.2,29.89,East,90,1.0,0.0,41,0.00,,---,0.00,VWS V14.01,2013-10-22 16:37:00,
2013-10-22 09:42:00,61.0,36.5,29.89,East,93,0.0,0.0,40,0.00,,---,0.00,VWS V14.01,2013-10-22 16:42:00,
2013-10-22 09:47:00,61.8,36.0,29.89,East,101,0.0,0.0,38,0.00,,---,0.00,VWS V14.01,2013-10-22 16:47:00,
2013-10-22 09:52:00,62.6,37.3,29.89,East,98,2.0,0.0,39,0.00,,---,0.00,VWS V14.01,2013-10-22 16:52:00,
2013-10-22 09:57:00,63.5,32.3,29.89,East,96,1.0,0.0,31,0.00,,---,0.00,VWS V14.01,2013-10-22 16:57:00,
2013-10-22 10:02:00,64.3,38.2,29.89,East,94,0.0,0.0,38,0.00,,---,0.00,VWS V14.01,2013-10-22 17:02:00,
2013-10-22 10:07:00,65.0,37.4,29.89,East,88,1.0,0.0,36,0.00,,---,0.00,VWS V14.01,2013-10-22 17:07:00,
2013-10-22 10:12:00,65.7,35.1,29.89,East,97,0.0,0.0,32,0.00,,---,0.00,VWS V14.01,2013-10-22 17:12:00,
2013-10-22 10:17:00,66.4,36.5,29.89,East,95,1.0,0.0,33,0.00,,---,0.00,VWS V14.01,2013-10-22 17:17:00,
2013-10-22 10:22:00,67.0,32.8,29.89,East,96,0.0,0.0,28,0.00,,---,0.00,VWS V14.01,2013-10-22 17:22:00,
2013-10-22 10:27:00,67.8,35.3,29.89,East,96,0.0,0.0,30,0.00,,---,0.00,VWS V14.01,2013-10-22 17:27:00,
2013-10-22 10:32:00,68.5,32.3,29.89,East,80,0.0,0.0,26,0.00,,---,0.00,VWS V14.01,2013-10-22 17:32:00,
2013-10-22 10:37:00,69.2,35.6,29.89,ENE,78,0.0,0.0,29,0.00,,---,0.00,VWS V14.01,2013-10-22 17:37:00,
2013-10-22 10:42:00,69.8,33.4,29.89,ENE,78,0.0,0.0,26,0.00,,---,0.00,VWS V14.01,2013-10-22 17:42:00,
2013-10-22 10:47:00,70.3,32.8,29.88,ESE,105,2.0,0.0,25,0.00,,---,0.00,VWS V14.01,2013-10-22 17:47:00,
2013-10-22 10:52:00,70.9,36.2,29.88,ENE,74,0.0,0.0,28,0.00,,---,0.00,VWS V14.01,2013-10-22 17:52:00,
2013-10-22 10:57:00,71.4,35.7,29.88,North,355,0.0,0.0,27,0.00,,---,0.00,VWS V14.01,2013-10-22 17:57:00,
2013-10-22 11:02:00,71.9,35.2,29.88,WNW,303,0.0,0.0,26,0.00,,---,0.00,VWS V14.01,2013-10-22 18:02:00,
2013-10-22 11:07:00,72.4,38.4,29.88,NNW,334,0.0,0.0,29,0.00,,---,0.00,VWS V14.01,2013-10-22 18:07:00,
2013-10-22 11:12:00,72.7,39.5,29.88,North,5,0.0,0.0,30,0.00,,---,0.00,VWS V14.01,2013-10-22 18:12:00,
2013-10-22 11:17:00,72.9,39.7,29.88,NNE,19,0.0,0.0,30,0.00,,---,0.00,VWS V14.01,2013-10-22 18:17:00,
2013-10-22 11:22:00,73.0,40.6,29.88,North,9,0.0,0.0,31,0.00,,---,0.00,VWS V14.01,2013-10-22 18:22:00,
2013-10-22 11:27:00,73.2,40.8,29.88,North,350,1.0,0.0,31,0.00,,---,0.00,VWS V14.01,2013-10-22 18:27:00,
2013-10-22 11:32:00,73.4,39.2,29.87,NNE,21,0.0,0.0,29,0.00,,---,0.00,VWS V14.01,2013-10-22 18:32:00,
2013-10-22 11:37:00,73.7,38.6,29.87,NE,55,0.0,0.0,28,0.00,,---,0.00,VWS V14.01,2013-10-22 18:37:00,
2013-10-22 11:42:00,73.9,38.8,29.87,NE,53,1.0,0.0,28,0.00,,---,0.00,VWS V14.01,2013-10-22 18:42:00,
2013-10-22 11:48:00,74.2,39.0,29.87,ESE,111,4.0,0.0,28,0.00,,---,0.00,VWS V14.01,2013-10-22 18:48:00,
2013-10-22 11:53:00,74.4,38.3,29.87,NNE,21,0.0,0.0,27,0.00,,---,0.00,VWS V14.01,2013-10-22 18:53:00,
2013-10-22 11:58:00,74.7,39.5,29.87,North,350,1.0,0.0,28,0.00,,---,0.00,VWS V14.01,2013-10-22 18:58:00,
2013-10-22 12:03:00,75.1,37.9,29.87,WNW,284,0.0,0.0,26,0.00,,---,0.00,VWS V14.01,2013-10-22 19:03:00,
2013-10-22 12:08:00,75.3,39.0,29.87,NNE,16,0.0,0.0,27,0.00,,---,0.00,VWS V14.01,2013-10-22 19:08:00,
2013-10-22 12:13:00,75.6,39.3,29.87,NNE,15,0.0,0.0,27,0.00,,---,0.00,VWS V14.01,2013-10-22 19:13:00,
2013-10-22 12:18:00,75.9,39.6,29.87,NNW,342,0.0,0.0,27,0.00,,---,0.00,VWS V14.01,2013-10-22 19:18:00,
2013-10-22 12:23:00,76.2,38.8,29.87,WNW,286,1.0,0.0,26,0.00,,---,0.00,VWS V14.01,2013-10-22 19:23:00,
2013-10-22 12:28:00,76.4,37.0,29.87,WNW,286,0.0,0.0,24,0.00,,---,0.00,VWS V14.01,2013-10-22 19:28:00,
2013-10-22 12:33:00,76.6,38.2,29.87,ESE,108,2.0,0.0,25,0.00,,---,0.00,VWS V14.01,2013-10-22 19:33:00,
2013-10-22 12:38:00,76.9,40.4,29.86,WSW,252,2.0,0.0,27,0.00,,---,0.00,VWS V14.01,2013-10-22 19:38:00,
2013-10-22 12:43:00,77.1,38.6,29.86,East,88,1.0,0.0,25,0.00,,---,0.00,VWS V14.01,2013-10-22 19:43:00,
2013-10-22 12:48:00,77.3,38.8,29.86,NNW,344,0.0,0.0,25,0.00,,---,0.00,VWS V14.01,2013-10-22 19:48:00,
2013-10-22 12:53:00,77.5,38.9,29.86,NW,321,2.0,0.0,25,0.00,,---,0.00,VWS V14.01,2013-10-22 19:53:00,
2013-10-22 12:58:00,77.7,38.1,29.86,NNW,337,0.0,0.0,24,0.00,,---,0.00,VWS V14.01,2013-10-22 19:58:00,
2013-10-22 13:03:00,77.9,41.3,29.85,NNW,334,1.0,0.0,27,0.00,,---,0.00,VWS V14.01,2013-10-22 20:03:00,
2013-10-22 13:08:00,78.0,40.4,29.85,North,351,0.0,0.0,26,0.00,,---,0.00,VWS V14.01,2013-10-22 20:08:00,
2013-10-22 13:13:00,78.3,39.6,29.85,NE,40,1.0,0.0,25,0.00,,---,0.00,VWS V14.01,2013-10-22 20:13:00,
2013-10-22 13:18:00,78.7,38.9,29.85,ENE,69,1.0,0.0,24,0.00,,---,0.00,VWS V14.01,2013-10-22 20:18:00,
2013-10-22 13:23:00,79.1,38.2,29.84,NE,53,1.0,0.0,23,0.00,,---,0.00,VWS V14.01,2013-10-22 20:23:00,
2013-10-22 13:28:00,79.7,39.8,29.84,NE,54,0.0,0.0,24,0.00,,---,0.00,VWS V14.01,2013-10-22 20:28:00,
2013-10-22 13:33:00,80.6,38.3,29.84,NNE,30,0.0,0.0,22,0.00,,---,0.00,VWS V14.01,2013-10-22 20:33:00,
2013-10-22 13:38:00,81.4,40.1,29.84,North,350,2.0,0.0,23,0.00,,---,0.00,VWS V14.01,2013-10-22 20:38:00,
2013-10-22 13:43:00,81.8,39.3,29.84,NE,34,1.0,0.0,22,0.00,,---,0.00,VWS V14.01,2013-10-22 20:43:00,
2013-10-22 13:48:00,82.1,40.7,29.84,NNW,342,0.0,0.0,23,0.00,,---,0.00,VWS V14.01,2013-10-22 20:48:00,
2013-10-22 13:53:00,82.8,40.1,29.83,WSW,246,1.0,0.0,22,0.00,,---,0.00,VWS V14.01,2013-10-22 20:53:00,
2013-10-22 13:58:00,82.5,39.9,29.83,West,265,3.0,0.0,22,0.00,,---,0.00,VWS V14.01,2013-10-22 20:58:00,
2013-10-22 14:03:00,82.8,42.4,29.83,North,355,0.0,0.0,24,0.00,,---,0.00,VWS V14.01,2013-10-22 21:03:00,
2013-10-22 14:08:00,83.3,41.7,29.83,NE,48,1.0,0.0,23,0.00,,---,0.00,VWS V14.01,2013-10-22 21:08:00,
2013-10-22 14:13:00,83.9,41.0,29.82,NE,53,1.0,0.0,22,0.00,,---,0.00,VWS V14.01,2013-10-22 21:13:00,
2013-10-22 14:18:00,84.3,40.2,29.82,NE,56,2.0,0.0,21,0.00,,---,0.00,VWS V14.01,2013-10-22 21:18:00,
2013-10-22 14:23:00,84.1,41.2,29.82,North,360,2.0,0.0,22,0.00,,---,0.00,VWS V14.01,2013-10-22 21:23:00,
2013-10-22 14:28:00,84.6,39.2,29.82,North,360,1.0,0.0,20,0.00,,---,0.00,VWS V14.01,2013-10-22 21:28:00,
2013-10-22 14:33:00,84.9,41.9,29.82,NNW,339,1.0,0.0,22,0.00,,---,0.00,VWS V14.01,2013-10-22 21:33:00,
2013-10-22 14:38:00,85.3,41.0,29.82,NE,40,2.0,0.0,21,0.00,,---,0.00,VWS V14.01,2013-10-22 21:38:00,
2013-10-22 14:43:00,85.0,40.7,29.82,NE,50,2.0,0.0,21,0.00,,---,0.00,VWS V14.01,2013-10-22 21:43:00,
2013-10-22 14:48:00,85.3,43.3,29.82,NNW,329,0.0,0.0,23,0.00,,---,0.00,VWS V14.01,2013-10-22 21:48:00,
2013-10-22 14:53:00,85.5,41.2,29.82,ENE,64,0.0,0.0,21,0.00,,---,0.00,VWS V14.01,2013-10-22 21:53:00,
2013-10-22 14:59:00,85.6,41.2,29.82,NNW,342,2.0,0.0,21,0.00,,---,0.00,VWS V14.01,2013-10-22 21:59:00,
2013-10-22 15:04:00,85.8,41.4,29.82,East,81,0.0,0.0,21,0.00,,---,0.00,VWS V14.01,2013-10-22 22:04:00,
2013-10-22 15:09:00,86.0,40.3,29.81,SSW,202,1.0,0.0,20,0.00,,---,0.00,VWS V14.01,2013-10-22 22:09:00,
2013-10-22 15:14:00,85.9,40.2,29.82,NE,52,0.0,0.0,20,0.00,,---,0.00,VWS V14.01,2013-10-22 22:14:00,
2013-10-22 15:19:00,85.8,40.1,29.81,NNW,340,1.0,0.0,20,0.00,,---,0.00,VWS V14.01,2013-10-22 22:19:00,
2013-10-22 15:24:00,86.0,39.0,29.81,NE,48,2.0,0.0,19,0.00,,---,0.00,VWS V14.01,2013-10-22 22:24:00,
2013-10-22 15:29:00,85.5,39.9,29.81,ENE,74,1.0,0.0,20,0.00,,---,0.00,VWS V14.01,2013-10-22 22:29:00,
2013-10-22 15:34:00,85.4,39.8,29.81,NW,325,0.0,0.0,20,0.00,,---,0.00,VWS V14.01,2013-10-22 22:34:00,
2013-10-22 15:39:00,85.2,40.9,29.81,NNE,24,1.0,0.0,21,0.00,,---,0.00,VWS V14.01,2013-10-22 22:39:00,
2013-10-22 15:44:00,85.2,40.9,29.81,NNE,16,1.0,0.0,21,0.00,,---,0.00,VWS V14.01,2013-10-22 22:44:00,
2013-10-22 15:49:00,85.2,40.9,29.81,NNE,20,1.0,0.0,21,0.00,,---,0.00,VWS V14.01,2013-10-22 22:49:00,
2013-10-22 15:54:00,84.8,40.6,29.81,NE,49,1.0,0.0,21,0.00,,---,0.00,VWS V14.01,2013-10-22 22:54:00,
2013-10-22 15:59:00,84.5,40.3,29.81,NNE,19,1.0,0.0,21,0.00,,---,0.00,VWS V14.01,2013-10-22 22:59:00,
2013-10-22 16:04:00,84.3,41.4,29.80,NE,40,0.0,0.0,22,0.00,,---,0.00,VWS V14.01,2013-10-22 23:04:00,
2013-10-22 16:09:00,83.9,41.0,29.80,ENE,75,0.0,0.0,22,0.00,,---,0.00,VWS V14.01,2013-10-22 23:09:00,
2013-10-22 16:14:00,83.4,40.6,29.80,ENE,62,1.0,0.0,22,0.00,,---,0.00,VWS V14.01,2013-10-22 23:14:00,
2013-10-22 16:19:00,82.9,41.3,29.80,NE,37,0.0,0.0,23,0.00,,---,0.00,VWS V14.01,2013-10-22 23:19:00,
2013-10-22 16:24:00,82.6,41.1,29.80,NE,49,1.0,0.0,23,0.00,,---,0.00,VWS V14.01,2013-10-22 23:24:00,
2013-10-22 16:29:00,82.4,42.0,29.80,NNW,339,1.0,0.0,24,0.00,,---,0.00,VWS V14.01,2013-10-22 23:29:00,
2013-10-22 16:34:00,82.2,40.8,29.80,NE,42,0.0,0.0,23,0.00,,---,0.00,VWS V14.01,2013-10-22 23:34:00,
2013-10-22 16:39:00,82.0,41.7,29.79,NE,55,1.0,0.0,24,0.00,,---,0.00,VWS V14.01,2013-10-22 23:39:00,
2013-10-22 16:44:00,81.8,41.5,29.79,NE,36,0.0,0.0,24,0.00,,---,0.00,VWS V14.01,2013-10-22 23:44:00,
2013-10-22 16:49:00,81.5,42.3,29.79,ENE,78,0.0,0.0,25,0.00,,---,0.00,VWS V14.01,2013-10-22 23:49:00,
2013-10-22 16:54:00,81.3,41.1,29.79,NE,53,1.0,0.0,24,0.00,,---,0.00,VWS V14.01,2013-10-22 23:54:00,
2013-10-22 16:59:00,81.1,40.9,29.79,NE,44,0.0,0.0,24,0.00,,---,0.00,VWS V14.01,2013-10-22 23:59:00,
2013-10-22 17:04:00,80.8,39.6,29.79,East,82,1.0,0.0,23,0.00,,---,0.00,VWS V14.01,2013-10-23 00:04:00,
2013-10-22 17:09:00,80.7,39.5,29.79,ENE,62,0.0,0.0,23,0.00,,---,0.00,VWS V14.01,2013-10-23 00:09:00,
2013-10-22 17:14:00,80.5,39.3,29.79,NE,56,0.0,0.0,23,0.00,,---,0.00,VWS V14.01,2013-10-23 00:14:00,
2013-10-22 17:19:00,80.3,39.2,29.79,NE,47,0.0,0.0,23,0.00,,---,0.00,VWS V14.01,2013-10-23 00:19:00,
2013-10-22 17:24:00,80.0,38.9,29.79,East,88,0.0,0.0,23,0.00,,---,0.00,VWS V14.01,2013-10-23 00:24:00,
2013-10-22 17:29:00,79.8,39.8,29.79,East,88,0.0,0.0,24,0.00,,---,0.00,VWS V14.01,2013-10-23 00:29:00,
2013-10-22 17:34:00,79.6,39.7,29.78,East,86,0.0,0.0,24,0.00,,---,0.00,VWS V14.01,2013-10-23 00:34:00,
2013-10-22 17:39:00,79.3,40.5,29.78,ENE,66,0.0,0.0,25,0.00,,---,0.00,VWS V14.01,2013-10-23 00:39:00,
2013-10-22 17:44:00,79.0,43.2,29.78,ENE,66,0.0,0.0,28,0.00,,---,0.00,VWS V14.01,2013-10-23 00:44:00,
2013-10-22 17:49:00,78.4,42.6,29.78,ENE,65,0.0,0.0,28,0.00,,---,0.00,VWS V14.01,2013-10-23 00:49:00,
2013-10-22 17:54:00,77.8,43.0,29.78,ENE,65,0.0,0.0,29,0.00,,---,0.00,VWS V14.01,2013-10-23 00:54:00,
2013-10-22 17:59:00,77.3,42.6,29.78,ENE,65,0.0,0.0,29,0.00,,---,0.00,VWS V14.01,2013-10-23 00:59:00,
2013-10-22 18:04:00,76.6,42.9,29.78,ENE,65,0.0,0.0,30,0.00,,---,0.00,VWS V14.01,2013-10-23 01:04:00,
2013-10-22 18:09:00,75.9,43.1,29.79,ENE,65,0.0,0.0,31,0.00,,---,0.00,VWS V14.01,2013-10-23 01:09:00,
2013-10-22 18:15:00,75.3,43.4,29.78,ENE,64,0.0,0.0,32,0.00,,---,0.00,VWS V14.01,2013-10-23 01:15:00,
2013-10-22 18:20:00,74.5,43.5,29.78,ENE,64,0.0,0.0,33,0.00,,---,0.00,VWS V14.01,2013-10-23 01:20:00,
2013-10-22 18:25:00,73.8,43.7,29.78,ENE,66,0.0,0.0,34,0.00,,---,0.00,VWS V14.01,2013-10-23 01:25:00,
2013-10-22 18:30:00,73.0,43.8,29.79,ENE,65,0.0,0.0,35,0.00,,---,0.00,VWS V14.01,2013-10-23 01:30:00,
2013-10-22 18:35:00,72.5,42.6,29.79,ENE,66,0.0,0.0,34,0.00,,---,0.00,VWS V14.01,2013-10-23 01:35:00,
2013-10-22 18:40:00,72.1,43.0,29.79,ENE,67,0.0,0.0,35,0.00,,---,0.00,VWS V14.01,2013-10-23 01:40:00,
2013-10-22 18:45:00,71.7,42.6,29.79,ENE,67,0.0,0.0,35,0.00,,---,0.00,VWS V14.01,2013-10-23 01:45:00,
2013-10-22 18:50:00,71.5,43.2,29.79,ENE,67,0.0,0.0,36,0.00,,---,0.00,VWS V14.01,2013-10-23 01:50:00,
2013-10-22 18:55:00,71.2,42.9,29.79,ENE,65,0.0,0.0,36,0.00,,---,0.00,VWS V14.01,2013-10-23 01:55:00,
2013-10-22 19:00:00,70.9,41.9,29.79,ENE,66,0.0,0.0,35,0.00,,---,0.00,VWS V14.01,2013-10-23 02:00:00,
2013-10-22 19:05:00,70.6,42.4,29.79,ENE,65,0.0,0.0,36,0.00,,---,0.00,VWS V14.01,2013-10-23 02:05:00,
2013-10-22 19:10:00,70.4,42.2,29.79,ENE,67,0.0,0.0,36,0.00,,---,0.00,VWS V14.01,2013-10-23 02:10:00,
2013-10-22 19:15:00,70.2,42.0,29.79,ENE,67,0.0,0.0,36,0.00,,---,0.00,VWS V14.01,2013-10-23 02:15:00,
2013-10-22 19:20:00,69.9,41.8,29.80,ENE,66,0.0,0.0,36,0.00,,---,0.00,VWS V14.01,2013-10-23 02:20:00,
2013-10-22 19:25:00,69.6,41.5,29.80,ENE,66,0.0,0.0,36,0.00,,---,0.00,VWS V14.01,2013-10-23 02:25:00,
2013-10-22 19:30:00,69.4,41.3,29.80,ENE,64,0.0,0.0,36,0.00,,---,0.00,VWS V14.01,2013-10-23 02:30:00,
2013-10-22 19:35:00,69.1,41.0,29.80,ENE,65,0.0,0.0,36,0.00,,---,0.00,VWS V14.01,2013-10-23 02:35:00,
2013-10-22 19:40:00,68.8,40.8,29.80,ENE,65,0.0,0.0,36,0.00,,---,0.00,VWS V14.01,2013-10-23 02:40:00,
2013-10-22 19:45:00,68.5,40.5,29.80,ENE,66,0.0,0.0,36,0.00,,---,0.00,VWS V14.01,2013-10-23 02:45:00,
2013-10-22 19:50:00,68.3,41.0,29.80,ENE,65,0.0,0.0,37,0.00,,---,0.00,VWS V14.01,2013-10-23 02:50:00,
2013-10-22 19:55:00,68.1,40.9,29.80,ENE,67,0.0,0.0,37,0.00,,---,0.00,VWS V14.01,2013-10-23 02:55:00,
2013-10-22 20:00:00,67.8,40.6,29.80,ENE,67,0.0,0.0,37,0.00,,---,0.00,VWS V14.01,2013-10-23 03:00:00,
2013-10-22 20:05:00,67.5,40.3,29.80,ENE,66,0.0,0.0,37,0.00,,---,0.00,VWS V14.01,2013-10-23 03:05:00,
2013-10-22 20:10:00,67.1,40.7,29.80,ENE,66,0.0,0.0,38,0.00,,---,0.00,VWS V14.01,2013-10-23 03:10:00,
2013-10-22 20:15:00,66.7,40.3,29.80,ENE,64,0.0,0.0,38,0.00,,---,0.00,VWS V14.01,2013-10-23 03:15:00,
2013-10-22 20:20:00,66.3,40.6,29.80,ENE,66,0.0,0.0,39,0.00,,---,0.00,VWS V14.01,2013-10-23 03:20:00,
2013-10-22 20:25:00,66.0,39.7,29.80,ENE,70,0.0,0.0,38,0.00,,---,0.00,VWS V14.01,2013-10-23 03:25:00,
2013-10-22 20:30:00,65.7,39.4,29.80,East,97,0.0,0.0,38,0.00,,---,0.00,VWS V14.01,2013-10-23 03:30:00,
2013-10-22 20:35:00,65.5,39.2,29.80,East,96,0.0,0.0,38,0.00,,---,0.00,VWS V14.01,2013-10-23 03:35:00,
2013-10-22 20:40:00,65.3,39.1,29.80,East,96,0.0,0.0,38,0.00,,---,0.00,VWS V14.01,2013-10-23 03:40:00,
2013-10-22 20:45:00,65.0,38.8,29.80,East,97,0.0,0.0,38,0.00,,---,0.00,VWS V14.01,2013-10-23 03:45:00,
2013-10-22 20:50:00,64.7,38.5,29.80,East,98,0.0,0.0,38,0.00,,---,0.00,VWS V14.01,2013-10-23 03:50:00,
2013-10-22 20:55:00,64.4,38.3,29.80,East,97,0.0,0.0,38,0.00,,---,0.00,VWS V14.01,2013-10-23 03:55:00,
2013-10-22 21:01:00,64.1,38.7,29.80,East,97,0.0,0.0,39,0.00,,---,0.00,VWS V14.01,2013-10-23 04:01:00,
2013-10-22 21:02:00,64.1,38.7,29.80,East,96,0.0,0.0,39,0.00,,---,0.00,VWS V14.01,2013-10-23 04:02:00,
2013-10-22 21:07:00,63.9,38.5,29.80,NE,43,0.0,0.0,39,0.00,,---,0.00,VWS V14.01,2013-10-23 04:07:00,
2013-10-22 21:12:00,63.7,38.3,29.80,North,9,0.0,0.0,39,0.00,,---,0.00,VWS V14.01,2013-10-23 04:12:00,
2013-10-22 21:17:00,63.6,37.5,29.80,East,98,0.0,0.0,38,0.00,,---,0.00,VWS V14.01,2013-10-23 04:17:00,
2013-10-22 21:22:00,63.6,37.5,29.80,East,81,0.0,0.0,38,0.00,,---,0.00,VWS V14.01,2013-10-23 04:22:00,
2013-10-22 21:27:00,63.5,38.1,29.80,West,278,0.0,0.0,39,0.00,,---,0.00,VWS V14.01,2013-10-23 04:27:00,
2013-10-22 21:32:00,63.3,37.3,29.81,East,80,0.0,0.0,38,0.00,,---,0.00,VWS V14.01,2013-10-23 04:32:00,
2013-10-22 21:37:00,63.3,38.0,29.81,ENE,58,0.0,0.0,39,0.00,,---,0.00,VWS V14.01,2013-10-23 04:37:00,
2013-10-22 21:42:00,63.2,37.9,29.81,SSW,194,0.0,0.0,39,0.00,,---,0.00,VWS V14.01,2013-10-23 04:42:00,
2013-10-22 21:47:00,63.2,37.9,29.81,SE,126,0.0,0.0,39,0.00,,---,0.00,VWS V14.01,2013-10-23 04:47:00,
2013-10-22 21:52:00,63.1,37.1,29.81,SE,125,0.0,0.0,38,0.00,,---,0.00,VWS V14.01,2013-10-23 04:52:00,
2013-10-22 21:57:00,62.9,36.9,29.81,SE,127,0.0,0.0,38,0.00,,---,0.00,VWS V14.01,2013-10-23 04:57:00,
2013-10-22 22:03:00,62.9,37.6,29.81,SE,127,0.0,0.0,39,0.00,,---,0.00,VWS V14.01,2013-10-23 05:03:00,
2013-10-22 22:08:00,62.8,37.5,29.81,East,90,0.0,0.0,39,0.00,,---,0.00,VWS V14.01,2013-10-23 05:08:00,
2013-10-22 22:13:00,62.6,36.7,29.81,East,90,0.0,0.0,38,0.00,,---,0.00,VWS V14.01,2013-10-23 05:13:00,
2013-10-22 22:18:00,62.6,36.7,29.81,East,84,0.0,0.0,38,0.00,,---,0.00,VWS V14.01,2013-10-23 05:18:00,
2013-10-22 22:23:00,62.5,35.9,29.81,East,101,0.0,0.0,37,0.00,,---,0.00,VWS V14.01,2013-10-23 05:23:00,
2013-10-22 22:28:00,62.6,36.7,29.81,ESE,104,0.0,0.0,38,0.00,,---,0.00,VWS V14.01,2013-10-23 05:28:00,
2013-10-22 22:33:00,62.7,36.1,29.81,ESE,108,0.0,0.0,37,0.00,,---,0.00,VWS V14.01,2013-10-23 05:33:00,
2013-10-22 22:38:00,62.7,36.1,29.81,East,80,0.0,0.0,37,0.00,,---,0.00,VWS V14.01,2013-10-23 05:38:00,
2013-10-22 22:43:00,62.6,36.0,29.81,NE,49,2.0,0.0,37,0.00,,---,0.00,VWS V14.01,2013-10-23 05:43:00,
2013-10-22 22:48:00,62.6,36.0,29.81,East,86,1.0,0.0,37,0.00,,---,0.00,VWS V14.01,2013-10-23 05:48:00,
2013-10-22 22:53:00,62.5,35.2,29.82,East,94,2.0,0.0,36,0.00,,---,0.00,VWS V14.01,2013-10-23 05:53:00,
2013-10-22 22:58:00,62.5,35.2,29.82,ENE,58,1.0,0.0,36,0.00,,---,0.00,VWS V14.01,2013-10-23 05:58:00,
2013-10-22 23:03:00,62.6,35.3,29.82,East,84,0.0,0.0,36,0.00,,---,0.00,VWS V14.01,2013-10-23 06:03:00,
2013-10-22 23:08:00,62.6,35.3,29.82,East,92,0.0,0.0,36,0.00,,---,0.00,VWS V14.01,2013-10-23 06:08:00,
2013-10-22 23:13:00,62.4,35.1,29.81,ESE,105,4.0,0.0,36,0.00,,---,0.00,VWS V14.01,2013-10-23 06:13:00,
2013-10-22 23:18:00,62.3,35.0,29.82,East,82,2.0,0.0,36,0.00,,---,0.00,VWS V14.01,2013-10-23 06:18:00,
2013-10-22 23:23:00,62.1,34.8,29.81,East,94,0.0,0.0,36,0.00,,---,0.00,VWS V14.01,2013-10-23 06:23:00,
2013-10-22 23:28:00,62.0,34.8,29.81,ESE,104,0.0,0.0,36,0.00,,---,0.00,VWS V14.01,2013-10-23 06:28:00,
2013-10-22 23:33:00,61.8,34.6,29.81,East,87,0.0,0.0,36,0.00,,---,0.00,VWS V14.01,2013-10-23 06:33:00,
2013-10-22 23:38:00,61.7,34.5,29.81,East,98,0.0,0.0,36,0.00,,---,0.00,VWS V14.01,2013-10-23 06:38:00,
2013-10-22 23:43:00,61.7,34.5,29.81,East,83,2.0,0.0,36,0.00,,---,0.00,VWS V14.01,2013-10-23 06:43:00,
2013-10-22 23:48:00,61.6,34.4,29.81,East,95,0.0,0.0,36,0.00,,---,0.00,VWS V14.01,2013-10-23 06:48:00,
2013-10-22 23:53:00,61.4,36.2,29.81,East,97,1.0,0.0,39,0.00,,---,0.00,VWS V14.01,2013-10-23 06:53:00,
2013-10-22 23:58:00,61.1,34.7,29.81,East,86,0.0,0.0,37,0.00,,---,0.00,VWS V14.01,2013-10-23 06:58:00,